Location: ??????????
(54.7560°N, 39.1389°E)
Time: 14:10:31
(UTC+00:00)

SeaSat 1 - Pass Details

Date: 19 May 2025
Orbit: 738 x 740 km, 108.0° (Epoch: 19 June)

Event Time Altitude Azimuth Distance (km) Brightness Sun altitude
Exits shadow 19:57:06 16° 188° (S) 1,893 4.0 -13.2°
Maximum altitude 20:00:33 35° 248° (WSW) 1,187 3.5 -13.4°
Drops below altitude 10° 20:05:03 10° 314° (NW) 2,261 6.0 -13.6°
Sets 20:07:30 0° 323° (NW) 3,189 7.2 -13.7°
